| time (UTC) | temp F | wind direction | speed MPH | gust MPH | rain 1hr in | rain 24hr in | rain mn in | humidity % | barometer mb |
| 20260503204505 | 77 | 294 | 13.0 | 26.0 | 0.00 | 0.01 | 0.01 | 100 | 1007.6 |
| 20260503200505 | 76 | 233 | 10.0 | 17.0 | 0.00 | 0.01 | 0.01 | 100 | 1008.1 |
| 20260503195005 | 75 | 261 | 8.0 | 15.0 | 0.00 | 0.01 | 0.01 | 100 | 1008.3 |
| 20260503194004 | 75 | 241 | 10.0 | 20.0 | 0.00 | 0.01 | 0.01 | 100 | 1008.7 |
| 20260503193505 | 75 | 239 | 10.0 | 15.0 | 0.00 | 0.01 | 0.01 | 100 | 1008.6 |
| 20260503185505 | 72 | 244 | 17.0 | 22.0 | 0.00 | 0.01 | 0.01 | 100 | 1009.1 |
| 20260503182006 | 71 | 222 | 11.0 | 17.0 | 0.00 | 0.01 | 0.01 | 100 | 1009.8 |
| 20260503181505 | 70 | 216 | 6.0 | 16.0 | 0.00 | 0.01 | 0.01 | 100 | 1009.8 |
| 20260503180505 | 68 | 203 | 13.0 | 21.0 | 0.00 | 0.01 | 0.01 | 100 | 1010.0 |
| 20260503180005 | 69 | 205 | 11.0 | 20.0 | 0.00 | 0.01 | 0.01 | 100 | 1010.1 |
| 20260503175504 | 69 | 219 | 10.0 | 18.0 | 0.00 | 0.01 | 0.01 | 100 | 1010.1 |
| 20260503175005 | 68 | 230 | 12.0 | 17.0 | 0.00 | 0.01 | 0.01 | 100 | 1010.2 |
| 20260503174504 | 68 | 224 | 12.0 | 22.0 | 0.00 | 0.01 | 0.01 | 100 | 1010.3 |
| 20260503173504 | 68 | 232 | 10.0 | 15.0 | 0.00 | 0.01 | 0.01 | 100 | 1010.4 |
| 20260503172505 | 66 | 245 | 12.0 | 20.0 | 0.00 | 0.01 | 0.01 | 100 | 1010.6 |
| 20260503172005 | 66 | 212 | 10.0 | 17.0 | 0.00 | 0.01 | 0.01 | 100 | 1010.6 |
| 20260503171504 | 66 | 217 | 13.0 | 21.0 | 0.00 | 0.01 | 0.01 | 100 | 1010.6 |
| 20260503170505 | 65 | 215 | 10.0 | 22.0 | 0.00 | 0.01 | 0.01 | 100 | 1010.9 |
| 20260503151005 | 57 | 200 | 14.0 | 23.0 | 0.00 | 0.01 | 0.01 | 100 | 1012.2 |
| 20260503150505 | 57 | 184 | 14.0 | 20.0 | 0.00 | 0.01 | 0.01 | 100 | 1012.4 |
| 20260503130504 | 48 | 143 | 12.0 | 16.0 | 0.01 | 0.01 | 0.01 | 100 | 1014.6 |
| 20260503081504 | 47 | 190 | 5.0 | 8.0 | 0.00 | 0.00 | 0.00 | 100 | 1017.0 |
| 20260503052504 | 47 | 204 | 5.0 | 9.0 | 0.00 | 0.00 | 0.00 | 100 | 1017.8 |
| 20260503052004 | 47 | 200 | 6.0 | 10.0 | 0.00 | 0.00 | 0.00 | 100 | 1017.8 |
| 20260503050504 | 47 | 214 | 3.0 | 5.0 | 0.00 | 0.00 | 0.00 | 100 | 1017.9 |
| 20260503045504 | 47 | 205 | 5.0 | 8.0 | 0.00 | 0.00 | 0.00 | 100 | 1017.9 |
| 20260503045004 | 47 | 201 | 3.0 | 8.0 | 0.00 | 0.00 | 0.00 | 100 | 1017.9 |
| 20260503043004 | 47 | 190 | 3.0 | 5.0 | 0.00 | 0.00 | 0.00 | 100 | 1018.0 |
| 20260503042503 | 47 | 196 | 3.0 | 6.0 | 0.00 | 0.00 | 0.00 | 100 | 1018.1 |
| 20260503042004 | 47 | 202 | 3.0 | 5.0 | 0.00 | 0.00 | 0.00 | 100 | 1018.1 |
| 20260503041003 | 47 | 204 | 3.0 | 5.0 | 0.00 | 0.00 | 0.00 | 100 | 1018.2 |
| 20260503035505 | 47 | 214 | 2.0 | 3.0 | 0.00 | 0.00 | 0.00 | 100 | 1018.4 |
| 20260503034005 | 47 | 204 | 3.0 | 5.0 | 0.00 | 0.00 | 0.00 | 100 | 1018.5 |
| 20260503033006 | 48 | 205 | 2.0 | 3.0 | 0.00 | 0.00 | 0.00 | 100 | 1018.7 |
| 20260503032505 | 48 | 211 | 3.0 | 5.0 | 0.00 | 0.00 | 0.00 | 100 | 1018.7 |
| 20260503031505 | 48 | 201 | 3.0 | 5.0 | 0.00 | 0.00 | 0.00 | 100 | 1018.9 |
| 20260503030505 | 49 | 200 | 5.0 | 6.0 | 0.00 | 0.00 | 0.00 | 100 | 1018.9 |
| 20260503030005 | 49 | 193 | 3.0 | 5.0 | 0.00 | 0.00 | 0.00 | 100 | 1018.9 |
| 20260503022006 | 51 | 213 | 3.0 | 5.0 | 0.00 | 0.00 | 0.00 | 100 | 1018.9 |
| 20260503021505 | 51 | 208 | 4.0 | 6.0 | 0.00 | 0.00 | 0.00 | 100 | 1018.9 |
| 20260503020505 | 52 | 206 | 3.0 | 6.0 | 0.00 | 0.00 | 0.00 | 100 | 1018.8 |
| 20260503020005 | 52 | 196 | 3.0 | 6.0 | 0.00 | 0.00 | 0.00 | 100 | 1018.8 |
| 20260503013505 | 54 | 215 | 2.0 | 3.0 | 0.00 | 0.00 | 0.00 | 100 | 1018.6 |
| 20260503013006 | 54 | 220 | 3.0 | 6.0 | 0.00 | 0.00 | 0.00 | 100 | 1018.7 |
| 20260503011506 | 55 | 224 | 5.0 | 8.0 | 0.00 | 0.00 | 0.00 | 100 | 1018.9 |
| 20260503004505 | 57 | 229 | 6.0 | 10.0 | 0.00 | 0.00 | 0.00 | 100 | 1018.8 |
| 20260503004005 | 58 | 227 | 5.0 | 10.0 | 0.00 | 0.00 | 0.00 | 100 | 1018.6 |
| 20260503002505 | 59 | 239 | 7.0 | 12.0 | 0.00 | 0.00 | 0.00 | 100 | 1018.8 |
| 20260503002005 | 59 | 235 | 8.0 | 14.0 | 0.00 | 0.00 | 0.00 | 100 | 1018.8 |
| 20260503001505 | 59 | 247 | 7.0 | 12.0 | 0.00 | 0.00 | 0.00 | 100 | 1018.9 |
| 20260502235506 | 60 | 250 | 10.0 | 13.0 | 0.00 | 0.00 | 0.00 | 100 | 1018.9 |
| 20260502233005 | 60 | 254 | 10.0 | 13.0 | 0.00 | 0.00 | 0.00 | 100 | 1019.3 |
| 20260502232504 | 60 | 231 | 7.0 | 10.0 | 0.00 | 0.00 | 0.00 | 100 | 1019.3 |
| 20260502232005 | 60 | 259 | 8.0 | 13.0 | 0.00 | 0.00 | 0.00 | 100 | 1019.4 |
| 20260502231005 | 60 | 236 | 9.0 | 16.0 | 0.00 | 0.00 | 0.00 | 100 | 1019.5 |
| 20260502225505 | 61 | 242 | 7.0 | 12.0 | 0.00 | 0.00 | 0.00 | 100 | 1019.6 |
| 20260502224505 | 61 | 255 | 9.0 | 16.0 | 0.00 | 0.00 | 0.00 | 100 | 1019.7 |
| 20260502223005 | 61 | 257 | 9.0 | 17.0 | 0.00 | 0.00 | 0.00 | 100 | 1019.5 |
| 20260502221505 | 60 | 207 | 8.0 | 13.0 | 0.00 | 0.00 | 0.00 | 100 | 1019.8 |
| 20260502220006 | 61 | 223 | 11.0 | 16.0 | 0.00 | 0.00 | 0.00 | 100 | 1019.9 |
| 20260502215005 | 61 | 244 | 9.0 | 15.0 | 0.00 | 0.00 | 0.00 | 100 | 1020.0 |
| 20260502214505 | 61 | 239 | 9.0 | 15.0 | 0.00 | 0.00 | 0.00 | 100 | 1019.9 |
| 20260502214005 | 61 | 273 | 11.0 | 15.0 | 0.00 | 0.00 | 0.00 | 100 | 1020.1 |
| 20260502213005 | 61 | 251 | 11.0 | 18.0 | 0.00 | 0.00 | 0.00 | 100 | 1020.1 |
| 20260502212505 | 61 | 285 | 9.0 | 12.0 | 0.00 | 0.00 | 0.00 | 100 | 1020.3 |
| 20260502212005 | 61 | 271 | 11.0 | 15.0 | 0.00 | 0.00 | 0.00 | 100 | 1020.3 |
| 20260502211506 | 60 | 244 | 8.0 | 13.0 | 0.00 | 0.00 | 0.00 | 100 | 1020.3 |
| 20260502210005 | 61 | 226 | 5.0 | 10.0 | 0.00 | 0.00 | 0.00 | 100 | 1020.5 |
| 20260502205505 | 61 | 244 | 8.0 | 15.0 | 0.00 | 0.00 | 0.00 | 100 | 1020.5 |